Погода в Актаныше

Россия / Республика Татарстан     55°43′23″N   54°02′59″E
темп.,
°C
ветер,
м/с
пор.,
м/с
влажн.,
%
обл.,
%
осадки,
мм/ч
давл.,
гПа
погр.,
м
16 октября, сб
сб1600:00+7юз6116890 0.0 1020584
03:00+5юз5117050 0.0 1020340
06:00+6юз6116558 0.0 1020559
09:00+7зюз610615 0.0 1021746
12:00+10зюз794910 0.0 10211377
15:00+10зюз58465 0.0 10211316
18:00+6юз485618 0.0 1022150
21:00+5ююз4106161 0.0 1021181
17 октября, вс
вс1700:00+4ююз410659 0.0 1020204
03:00+4ююз41162100 0.0 1020235
06:00+5ююз51260100 0.0 1019276
09:00+8ююз6125085 0.0 1018526
12:00+12юз7103910 0.0 10171063
15:00+12юз584348 0.0 1017655
18:00+8ююз51059100 0.0 1017240
21:00+7юз4107788 0.0 1017225
18 октября, пн
пн1800:00+6ююз3671100 0.0 1016110
03:00+7ююз3769100 0.0 1015142
06:00+8ююз497298 0.0 1014266
09:00+9ююз4979100 0.0 1014420
12:00+11ююз5874100 0.0 1013641
15:00+10ююз51072100 0.0 1012543
18:00+9ююз51177100 0.0 1011496
21:00+9ююз4966100 0.0 1010282
19 октября, вт
вт1900:00+8ююз3873100 0.0 1009216
03:00+9ююз4873100 0.0 1008318
06:00+8юз3778100 0.0 1008272
09:00+9зюз4669100 0.0 1009535
12:00+10зюз4556100 0.0 10081051
15:00+9зсз5566100 0.0 1008799
18:00+7зсз3568100 0.0 1009786
21:00+4сз3563100 0.0 1010164
20 октября, ср
ср2000:00+3зсз2566100 0.0 1010135
03:00+2зсз34755 0.0 101179
06:000зсз34915 0.0 101285
09:00+3сз45735 0.0 1013521
12:00+5сз565882 0.0 10141202
15:00+5зсз5665100 0.3 10121065
18:00+3сз576899 0.0 1014834
21:00+1сз479673 0.1 1015312